Temperature
22 22 22 21 21 21 21 20 20 20 20 19 19 19 19 19 19 19 19 18 18 18 18 18 18 18 18 18 18 18 18 17 17 17 17 17 17 18 17 17 17 17 17
22 22 22 21 21 21 21 20 20 20 20 19 19 19 19 19 19 19 19 18 18 18 18 18 18 18 18 18 18 18 18 18 17 17 17 17 17 17 17 17 17 17 17
23 22 22 22 21 21 21 21 20 20 20 20 19 19 19 19 19 18 18 18 18 18 18 18 18 18 18 18 18 18 18 18 18 17 17 17 17 17 17 17 17 17 17
23 23 22 22 22 21 21 21 20 20 20 20 19 19 19 19 19 19 18 18 18 18 18 18 18 18 18 18 18 18 18 17 17 17 17 17 17 17 17 17 17 17 17
23 23 23 22 22 21 21 21 20 20 20 20 19 19 19 19 19 19 18 18 18 18 18 18 18 18 18 18 18 18 17 17 17 17 17 17 17 17 17 17 17 17 17
23 23 23 22 22 21 21 21 21 20 20 20 19 19 19 19 19 19 18 18 18 18 18 18 18 18 18 18 18 18 17 17 17 17 17 17 17 17 17 17 17 17 17
23 23 22 22 22 22 21 21 21 20 20 20 19 19 19 19 19 19 18 18 18 18 18 18 18 18 18 18 18 17 17 17 17 17 17 17 17 17 17 17 17 16 16
23 23 23 22 22 22 21 21 21 21 20 20 20 19 19 19 19 19 19 18 18 18 18 18 18 18 18 17 17 17 17 17 17 17 17 17 17 17 17 17 17 16 16
23 23 23 23 22 22 21 21 21 21 20 20 20 19 19 19 19 19 18 18 18 18 18 18 18 18 18 17 17 17 17 17 17 17 17 17 17 17 17 17 16 16 16
23 23 23 23 22 22 22 21 21 21 20 20 20 19 19 19 19 19 18 18 18 18 18 18 18 18 17 17 17 17 17 17 17 17 17 17 17 17 16 16 16 16 16
23 23 23 22 22 22 22 21 21 21 20 20 20 19 19 19 19 19 18 18 18 18 18 17 17 17 17 17 17 17 17 17 17 16 16 16 16 16 16 16 16 16 16
23 23 23 22 22 21 21 21 21 20 20 20 20 19 19 19 19 18 18 18 18 18 17 17 17 17 17 17 17 17 17 17 16 16 16 16 16 16 16 16 16 16 15
22 22 22 22 21 21 21 21 21 20 20 20 20 19 19 19 18 18 18 18 18 17 17 17 17 17 17 16 17 16 16 16 16 16 16 16 16 16 16 15 15 15 15
22 22 22 21 21 21 21 21 21 20 20 20 19 19 19 19 18 18 18 18 17 17 17 17 16 16 16 16 16 16 16 16 16 16 16 16 16 15 15 15 15 15 15
22 21 21 21 21 21 21 20 20 20 20 20 19 19 19 18 18 18 17 17 17 17 17 16 16 16 16 16 16 16 16 15 15 15 15 15 15 15 15 15 15 15 15
21 21 21 21 21 21 21 20 20 20 20 20 19 19 19 18 18 18 17 17 17 17 16 16 16 16 16 16 16 15 15 15 15 15 15 15 15 15 15 14 14 14 14
21 21 21 21 20 20 20 20 20 20 19 19 19 19 18 18 18 18 17 17 17 16 16 16 16 16 16 15 15 15 15 15 15 15 14 14 14 14 14 14 14 14 13
21 21 21 20 20 20 20 20 20 19 19 19 19 19 18 18 18 17 17 17 17 16 16 16 16 15 15 15 15 15 15 15 14 14 14 14 14 14 14 14 13 13 13
21 21 21 20 20 20 20 20 20 19 19 19 19 18 18 18 18 17 17 17 16 16 16 16 16 15 15 15 15 15 15 14 14 14 14 14 14 14 13 13 13 13 13
20 20 20 20 20 20 19 19 19 19 19 19 18 18 18 18 18 17 17 17 16 16 16 16 16 15 15 15 15 14 14 14 14 14 14 14 13 13 13 13 13 13 13
20 20 20 20 20 19 19 19 19 19 18 18 18 18 17 17 17 17 17 17 16 16 16 16 15 15 15 15 15 14 14 14 14 14 14 14 13 13 13 13 13 13 13
20 20 20 19 19 19 19 19 18 18 18 18 18 17 17 17 17 17 16 16 16 16 16 15 15 15 15 15 14 14 14 14 14 14 13 13 13 13 13 13 13 12 12
19 19 19 19 19 18 18 18 18 18 18 17 17 17 17 17 16 16 16 16 16 16 15 15 15 15 15 14 14 14 14 14 14 14 13 13 13 13 13 12 12 12 12
19 19 19 19 18 18 18 18 18 17 17 17 17 17 16 16 16 16 16 15 15 15 15 15 15 14 14 14 14 14 14 13 13 13 13 13 13 13 12 12 12 12 12
19 18 18 18 18 18 17 17 17 17 17 17 17 16 16 16 16 16 15 15 15 15 15 15 15 14 14 14 14 14 13 13 13 13 13 13 12 12 12 12 12 12 12
18 18 18 18 18 17 17 17 17 16 16 16 16 16 16 15 15 15 15 15 14 14 14 14 14 14 14 14 14 13 13 13 13 12 12 12 12 12 12 12 12 12 12
Wind_Speed
11 11 12 11 10 8 8 7 6 5 4 3 2 2 1 1 2 2 4 5 5 5 4 2 2 2 2 2 2 2 1 1 1 2 1 2 1 2 2 2 2 3 5
10 11 11 11 10 10 8 7 7 6 5 3 3 2 2 1 2 1 3 5 5 5 5 3 3 3 2 2 2 2 2 1 2 2 1 1 2 2 2 2 2 3 3
15 14 13 12 11 10 9 9 7 6 6 4 3 2 2 2 1 1 1 2 4 4 4 4 3 3 3 2 2 2 3 2 1 2 3 2 3 1 2 2 2 2 2
14 14 14 12 12 11 9 8 7 6 5 5 4 4 3 2 3 2 2 2 2 3 4 4 4 3 3 2 2 2 2 3 1 1 1 2 3 2 1 2 1 1 2
15 14 14 14 12 11 10 9 7 6 5 4 4 4 3 3 2 1 2 2 1 2 3 4 3 3 2 2 2 2 2 2 2 2 1 1 0 1 2 1 1 1 1
14 13 13 12 11 10 10 9 8 7 6 6 5 5 5 4 3 2 2 1 1 1 2 4 3 3 2 2 3 3 2 2 2 2 2 2 2 2 2 2 2 1 2
14 13 13 13 12 12 11 9 9 7 6 6 6 6 5 5 4 4 3 2 1 1 2 3 3 2 2 3 2 2 2 2 2 2 2 2 3 3 3 3 2 1 1
12 13 14 15 14 13 12 11 10 8 7 6 6 5 5 4 3 4 4 3 2 2 2 3 3 2 2 2 2 2 2 2 2 2 2 2 2 2 3 3 3 1 1
13 13 14 15 14 14 13 12 11 9 8 7 6 5 5 4 4 3 3 2 2 2 2 2 2 2 2 2 2 1 2 1 2 2 2 1 1 1 2 3 4 4 2
11 12 12 13 13 13 12 11 11 10 8 7 6 5 4 5 5 4 3 3 2 1 2 2 2 2 2 1 1 1 1 1 1 1 1 1 1 0 0 1 2 3 4
11 10 10 11 11 11 11 10 10 9 8 7 6 5 5 5 5 4 4 3 2 2 2 2 2 2 1 1 1 1 1 1 1 1 1 0 0 0 0 1 2 2 3
10 9 10 10 10 10 10 10 9 9 8 7 7 6 5 5 4 4 3 3 3 2 2 2 2 2 1 1 2 2 1 1 1 0 1 0 1 1 1 1 1 2 2
7 7 7 8 8 9 9 8 9 9 8 7 7 6 5 5 5 4 3 3 3 2 2 2 2 2 1 1 2 2 2 2 2 1 1 1 2 1 1 1 1 1 2
8 8 7 6 7 7 7 6 6 7 7 7 7 7 6 6 5 4 4 3 3 3 3 2 2 2 1 1 1 1 2 2 1 1 1 1 2 2 2 2 2 2 3
8 7 6 6 6 7 6 6 6 6 7 8 8 7 6 5 5 4 4 3 3 4 3 3 2 1 1 1 1 2 2 2 2 2 1 1 2 3 2 2 2 3 3
8 7 6 6 6 7 7 7 6 7 7 8 8 7 6 5 5 5 4 3 3 3 3 3 2 2 2 2 3 3 2 2 3 2 1 1 2 2 3 3 4 5 4
8 8 8 7 6 6 7 8 7 7 7 7 7 7 6 6 6 6 4 4 4 3 3 3 3 3 3 3 3 3 3 3 3 3 2 2 1 2 1 2 2 1 3
8 7 6 6 5 5 5 5 6 7 7 7 7 7 7 7 6 5 5 5 4 4 4 4 4 3 3 3 4 3 2 2 3 3 4 4 2 2 3 3 1 0 1
8 7 6 6 5 5 5 6 6 5 6 6 7 7 7 7 6 6 6 5 4 4 4 3 4 4 4 4 5 4 2 2 2 2 3 4 3 4 4 3 2 1 2
7 6 6 6 6 5 5 6 5 5 5 5 6 6 6 6 7 7 5 4 4 4 4 3 4 4 4 5 5 6 3 2 2 2 3 5 5 5 5 4 4 3 3
6 7 7 6 6 5 6 6 4 4 4 3 4 4 4 4 5 5 4 4 4 3 3 3 3 4 5 5 6 6 4 4 3 3 3 4 7 7 7 6 5 6 5
5 6 6 5 4 5 7 6 4 4 3 4 3 2 2 2 2 3 3 3 4 4 4 3 4 3 4 5 5 7 7 5 4 4 4 4 7 7 6 5 6 6 4
5 4 6 5 3 4 6 6 5 4 4 4 3 3 2 2 2 3 3 2 3 3 4 4 4 4 3 4 6 6 6 7 5 5 6 6 7 6 5 6 7 5 3
5 5 5 5 4 3 4 5 4 4 5 4 3 3 3 3 3 3 3 4 4 4 4 4 4 4 3 3 3 4 4 5 4 3 4 6 6 5 4 4 4 4 4
3 4 5 5 4 3 3 3 4 5 4 3 3 3 3 3 3 3 3 4 5 6 6 5 4 4 5 7 7 5 4 4 4 3 1 1 1 2 2 3 3 3 3
4 4 4 4 4 4 4 3 4 4 5 4 4 3 3 3 3 3 2 3 4 5 6 7 6 5 6 6 7 7 7 6 5 4 3 3 4 5 5 5 5 4 5
Wind_Direction
175 169 167 167 160 157 156 157 156 163 146 133 133 130 142 158 163 176 170 164 161 156 147 142 142 133 137 161 153 142 148 176 142 100 18 337 302 235 226 219 194 195 203
169 171 171 171 169 168 166 164 165 166 166 165 163 162 159 181 179 181 167 169 165 166 161 152 159 154 144 141 133 134 140 183 159 147 127 2 332 312 257 233 201 198 187
176 178 177 177 172 173 173 174 174 170 170 161 132 110 78 63 67 129 183 186 169 170 162 162 158 155 148 160 168 153 150 177 226 169 160 164 223 272 308 256 228 206 196
178 179 179 176 177 177 171 166 171 170 168 152 141 149 156 177 204 192 191 203 176 169 164 159 155 157 158 172 191 174 163 156 204 260 208 186 170 171 269 317 283 221 214
180 180 178 176 175 172 169 170 167 167 164 157 163 167 176 192 190 164 163 183 194 176 165 157 154 161 168 180 183 169 161 165 181 195 208 205 154 161 167 247 297 319 261
178 179 176 171 173 172 170 169 168 170 165 165 173 181 184 175 160 157 163 183 193 186 166 166 168 176 180 184 185 188 181 186 183 187 183 171 175 196 174 197 223 244 276
175 175 174 175 177 172 172 172 170 172 172 168 176 184 181 171 168 172 175 172 175 194 206 185 182 187 192 189 181 179 192 189 188 200 205 199 206 192 174 172 199 233 276
177 178 179 181 182 177 175 173 175 179 177 173 180 180 170 165 171 175 172 174 184 194 189 170 174 181 182 189 180 181 204 195 205 221 212 208 217 196 181 173 165 176 300
176 182 184 182 180 179 179 176 177 179 180 181 180 178 173 163 161 160 156 165 180 179 161 159 164 173 171 169 158 185 211 199 214 228 218 208 223 208 193 177 171 167 192
175 177 176 178 180 181 179 174 176 179 179 179 183 183 173 165 158 149 149 155 165 161 144 147 159 163 156 152 146 189 221 185 244 219 166 231 256 263 209 167 165 169 173
170 170 167 172 176 175 173 174 175 173 176 181 180 171 162 160 151 154 162 162 156 151 148 156 155 152 150 149 138 165 156 162 275 286 152 239 210 142 255 122 126 136 144
167 166 162 160 163 166 169 173 177 179 184 181 169 166 160 158 159 164 168 161 156 153 149 147 152 162 164 164 163 180 165 161 180 238 110 244 103 78 63 100 113 135 143
134 139 139 150 159 166 168 170 178 182 181 172 166 164 162 164 174 176 167 156 151 147 139 137 148 169 179 169 176 177 173 168 172 155 137 152 116 103 99 107 113 123 122
128 132 137 150 154 158 161 164 174 175 171 169 169 171 177 178 181 174 166 163 158 155 158 154 161 172 170 149 155 147 147 144 143 137 125 118 133 149 138 127 133 126 114
132 135 140 146 151 153 159 162 171 172 171 169 172 177 179 178 169 167 169 170 168 171 166 158 169 174 166 172 150 151 143 146 134 115 117 119 128 141 154 151 151 139 132
145 148 150 150 154 164 169 166 171 173 167 169 174 173 171 171 171 175 173 176 183 182 170 179 185 188 210 188 162 153 149 158 159 159 168 146 120 140 142 149 162 164 160
145 155 160 159 162 169 170 173 174 166 162 169 172 170 170 174 185 188 183 191 199 191 185 196 189 197 223 199 173 164 167 175 183 179 180 182 158 148 145 141 136 173 191
147 154 160 158 158 162 165 163 157 158 164 170 175 177 182 186 190 189 195 202 199 195 199 203 197 200 231 208 183 180 175 188 192 187 182 174 184 197 172 154 143 224 251
147 150 155 150 145 145 150 145 146 155 165 177 184 187 187 188 192 199 204 201 193 200 204 199 198 203 224 212 198 181 173 183 212 213 196 184 187 202 174 153 167 207 286
140 144 138 127 134 145 142 136 151 155 177 189 190 188 187 190 199 204 201 195 195 206 202 210 212 204 214 221 209 189 181 189 217 236 219 200 195 199 183 176 183 205 239
133 136 133 138 150 149 138 138 148 174 190 174 169 179 188 196 201 198 193 189 193 192 200 220 230 220 219 218 205 188 187 198 211 227 236 229 207 204 201 194 202 219 218
125 132 136 143 153 151 144 151 177 190 158 140 145 163 176 190 193 191 193 188 186 194 212 225 242 244 235 220 214 201 200 196 203 223 230 228 216 212 213 216 227 221 205
146 147 144 141 151 161 156 163 188 170 151 149 163 182 186 200 192 190 191 196 202 204 218 221 233 247 249 242 225 214 216 212 211 223 221 223 225 222 227 232 226 212 199
154 151 140 145 160 171 169 175 180 168 160 172 188 192 194 208 206 198 192 198 211 215 220 222 229 242 246 242 235 231 231 232 232 233 227 222 222 220 228 241 239 226 215
144 147 153 164 172 171 180 184 174 165 173 189 204 208 210 213 215 216 217 215 219 213 210 219 215 221 238 238 219 209 218 219 222 208 201 192 197 223 240 244 240 233 225
143 140 151 161 175 180 189 193 181 176 182 198 207 212 222 225 217 213 242 252 240 246 225 224 218 228 235 230 214 215 218 212 195 174 200 217 218 222 228 234 240 234 231
Height
1520 1522 1524 1525 1527 1528 1529 1530 1531 1532 1533 1534 1534 1535 1536 1536 1536 1536 1537 1537 1537 1537 1537 1538 1538 1538 1538 1539 1539 1540 1540 1541 1541 1542 1542 1542 1542 1543 1543 1543 1544 1544 1544
1519 1521 1523 1524 1525 1527 1528 1529 1530 1531 1533 1533 1534 1535 1536 1536 1536 1536 1537 1537 1537 1537 1537 1537 1537 1538 1538 1538 1539 1539 1539 1540 1540 1541 1541 1541 1542 1541 1541 1542 1542 1542 1542
1516 1519 1520 1522 1524 1525 1527 1528 1530 1531 1532 1533 1534 1535 1535 1535 1536 1536 1536 1536 1536 1537 1537 1537 1537 1537 1537 1537 1538 1538 1538 1539 1539 1540 1540 1540 1540 1540 1540 1540 1540 1541 1541
1512 1515 1518 1520 1522 1524 1526 1527 1529 1530 1531 1532 1533 1533 1534 1534 1534 1535 1535 1535 1536 1536 1536 1536 1536 1536 1536 1536 1537 1537 1537 1537 1538 1538 1539 1539 1539 1539 1539 1539 1539 1539 1539
1509 1512 1515 1518 1520 1522 1524 1526 1527 1529 1530 1531 1532 1533 1533 1533 1534 1534 1534 1534 1535 1535 1535 1535 1535 1535 1535 1535 1535 1536 1536 1536 1536 1537 1537 1537 1537 1537 1538 1537 1537 1538 1537
1507 1511 1513 1516 1518 1520 1522 1524 1525 1527 1528 1529 1530 1531 1532 1532 1532 1532 1533 1533 1533 1533 1533 1534 1534 1534 1534 1534 1534 1534 1534 1534 1535 1535 1535 1535 1536 1536 1536 1536 1535 1535 1536
1505 1508 1511 1513 1515 1517 1519 1522 1524 1525 1527 1528 1529 1530 1530 1530 1531 1531 1531 1531 1531 1532 1532 1532 1532 1532 1532 1533 1533 1533 1533 1533 1533 1533 1533 1533 1534 1534 1534 1534 1533 1533 1533
1502 1505 1507 1510 1512 1514 1517 1519 1522 1524 1526 1527 1527 1528 1529 1529 1529 1530 1530 1530 1530 1530 1531 1531 1531 1531 1531 1531 1531 1531 1531 1531 1531 1531 1531 1531 1531 1531 1532 1532 1532 1531 1531
1498 1501 1504 1506 1509 1512 1514 1517 1520 1522 1524 1525 1526 1527 1527 1528 1528 1529 1529 1529 1529 1529 1529 1529 1529 1529 1529 1530 1529 1529 1529 1529 1529 1529 1529 1529 1529 1529 1529 1529 1530 1530 1529
1495 1498 1500 1503 1507 1509 1512 1515 1518 1520 1522 1524 1525 1525 1526 1527 1527 1527 1527 1527 1527 1528 1528 1528 1528 1528 1528 1528 1528 1527 1527 1527 1527 1527 1527 1527 1527 1527 1527 1527 1527 1527 1527
1492 1496 1498 1501 1505 1508 1511 1513 1516 1518 1520 1521 1523 1524 1524 1525 1525 1525 1526 1526 1526 1526 1526 1526 1526 1526 1526 1526 1526 1526 1525 1525 1525 1525 1525 1525 1525 1525 1525 1525 1524 1524 1524
1492 1495 1498 1500 1503 1506 1509 1511 1514 1516 1518 1519 1521 1521 1522 1523 1523 1523 1524 1524 1524 1524 1524 1525 1525 1525 1524 1524 1524 1524 1524 1523 1523 1523 1523 1523 1523 1523 1523 1522 1522 1522 1522
1491 1495 1497 1500 1502 1505 1507 1509 1512 1514 1516 1517 1518 1519 1520 1521 1521 1522 1522 1522 1523 1523 1523 1523 1523 1523 1523 1523 1523 1522 1522 1521 1521 1521 1521 1521 1521 1521 1521 1520 1520 1520 1520
1491 1494 1496 1499 1501 1503 1505 1507 1510 1512 1514 1515 1516 1517 1517 1518 1519 1520 1520 1521 1521 1521 1521 1522 1522 1522 1521 1521 1521 1520 1520 1519 1519 1519 1519 1519 1519 1519 1518 1518 1518 1518 1518
1490 1493 1495 1497 1500 1502 1504 1506 1507 1509 1511 1512 1513 1514 1516 1516 1517 1517 1518 1519 1519 1519 1519 1520 1520 1520 1520 1519 1519 1518 1518 1517 1517 1517 1517 1517 1516 1516 1516 1516 1516 1516 1516
1487 1491 1494 1496 1498 1500 1502 1504 1505 1507 1509 1510 1511 1512 1513 1514 1514 1515 1516 1516 1517 1517 1517 1517 1518 1517 1517 1517 1517 1516 1515 1515 1515 1514 1514 1514 1514 1514 1514 1514 1514 1515 1514
1487 1490 1492 1495 1497 1499 1500 1502 1503 1505 1507 1508 1509 1510 1511 1512 1512 1513 1513 1514 1514 1515 1515 1515 1515 1515 1515 1515 1514 1514 1513 1513 1512 1512 1512 1512 1512 1512 1512 1512 1512 1512 1512
1486 1489 1491 1494 1496 1498 1499 1501 1502 1503 1505 1506 1507 1507 1508 1509 1510 1510 1511 1511 1511 1512 1512 1513 1513 1513 1512 1512 1511 1511 1511 1510 1510 1510 1509 1509 1509 1510 1510 1510 1510 1510 1510
1485 1488 1490 1492 1494 1496 1498 1499 1500 1502 1503 1504 1505 1505 1505 1507 1507 1507 1508 1508 1509 1509 1510 1510 1510 1509 1509 1509 1509 1508 1508 1507 1507 1507 1507 1507 1507 1508 1508 1508 1507 1507 1508
1484 1486 1488 1490 1493 1495 1496 1497 1498 1499 1500 1502 1502 1503 1504 1504 1504 1505 1505 1506 1506 1507 1507 1507 1506 1506 1506 1506 1505 1505 1505 1504 1504 1504 1504 1505 1505 1505 1505 1505 1505 1505 1505
1483 1485 1487 1488 1490 1493 1494 1495 1496 1497 1498 1499 1500 1501 1501 1501 1502 1502 1502 1503 1503 1504 1504 1504 1503 1503 1503 1503 1503 1502 1502 1501 1501 1501 1501 1501 1501 1502 1502 1502 1501 1502 1502
1482 1484 1485 1487 1489 1490 1492 1493 1494 1495 1495 1496 1497 1498 1498 1499 1499 1499 1499 1500 1500 1500 1500 1500 1500 1500 1499 1499 1499 1499 1499 1498 1498 1497 1497 1498 1498 1498 1498 1498 1498 1499 1499
1481 1482 1484 1485 1487 1489 1489 1490 1491 1493 1493 1494 1494 1495 1495 1495 1496 1496 1495 1496 1497 1496 1496 1496 1496 1496 1496 1495 1495 1495 1495 1495 1494 1494 1494 1494 1494 1494 1494 1495 1495 1495 1495
1480 1481 1482 1484 1485 1486 1488 1488 1489 1490 1491 1491 1491 1492 1492 1492 1492 1493 1492 1492 1492 1492 1492 1492 1492 1492 1492 1491 1491 1491 1491 1491 1491 1490 1490 1490 1490 1490 1490 1490 1491 1491 1491
1479 1480 1481 1482 1483 1484 1485 1487 1487 1488 1488 1489 1489 1489 1489 1490 1490 1489 1489 1489 1489 1489 1489 1488 1488 1488 1488 1488 1487 1487 1487 1487 1487 1486 1486 1485 1485 1485 1485 1485 1486 1486 1487
1477 1479 1480 1481 1481 1482 1483 1484 1485 1485 1486 1486 1486 1486 1486 1486 1485 1485 1486 1486 1486 1486 1485 1485 1485 1485 1485 1484 1484 1483 1483 1483 1483 1482 1481 1480 1480 1480 1480 1481 1481 1482 1482